[[{"header":{"parameterUnit":"m.s-1","parameterCategory":1,"la1":30.2991,"la2":30.254,"lo1":-89.0895,"lo2":-89.0444,"dy":0.0017,"dx":0.0017,"nx":28,"ny":28,"refTime":"2024-06-08T09:00:00:Z","depth":0,"parameterNumber":2,"parameterNumberName":"U-component_of_WINDS"},"data":[0,0,0,0,0,0,0,0,0,0,0,0,0,0,0,0,0,0,0,0,0,0,0,0,0,0,0,0,0,0,0,0,0,0,0,0,0,0,0,0,0,0,0,0,0,0,0,0,0,0,0,0,0,0,0,0,0,0,1.3634,1.3636,0,1.3823,1.3825,1.3827,1.3897,1.3896,1.3896,1.3895,1.4088,1.4094,1.4099,0,0,0,0,0,0,0,0,0,0,0,0,0,1.3334,1.3339,1.3634,1.3636,1.3639,1.3822,1.3825,1.3828,1.3897,1.3896,1.3896,1.3895,1.4086,1.4093,1.41,0,0,0,0,0,0,0,0,0,0,0,0,0,1.3487,1.3341,1.3634,1.3696,1.3703,1.3822,1.3825,1.3828,1.3897,1.3896,1.3895,1.3895,1.4084,1.4092,1.4101,1.4172,0,0,1.4127,1.4131,0,0,0,0,0,0,0,0,1.3478,1.3498,1.3684,1.3691,1.37,1.3835,1.379,1.3943,1.3897,1.3823,1.3895,1.3894,1.4005,1.402,1.4057,1.4181,1.4189,1.4128,1.4133,1.4137,1.4139,0,0,0,0,0,0,0,1.3468,1.3491,1.3709,1.3687,1.3696,1.3714,1.3735,1.3819,1.3917,1.383,1.3835,1.3857,1.4009,1.4049,1.4062,1.4192,1.4127,1.4135,1.414,1.4144,1.4383,1.4384,0,0,0,0,0,0,1.3447,1.3481,1.3703,1.3714,1.3585,1.372,1.3743,1.3793,1.3916,1.3934,1.3857,1.3859,1.4035,1.4052,1.4069,1.4161,1.4136,1.4144,1.4149,1.4382,1.4384,1.4385,0,0,0,0,0,0,1.344,1.3466,1.3695,1.3599,1.363,1.3726,1.3781,1.3797,1.3837,1.3937,1.3955,1.388,1.4035,1.4057,1.4146,1.4168,1.4148,1.4156,1.4381,1.4383,1.4384,1.4343,0,0,0,0,0,0,1.3431,1.3463,1.3491,1.3599,1.3635,1.3768,1.3783,1.3801,1.3851,1.3856,1.3963,1.398,1.4036,1.4133,1.4154,1.418,1.4163,1.4379,1.4381,1.4384,1.4343,1.4343,1.4344,0,0,0,0,0,1.342,1.3472,1.3492,1.3518,1.3672,1.3769,1.379,1.3853,1.3853,1.3882,1.3946,1.3976,1.4162,1.4141,1.4166,1.4194,1.4378,1.4381,1.4383,1.4343,1.4343,1.4344,0,0,0,0,0,0,1.3363,1.3487,1.3511,1.3599,1.3673,1.3781,1.3819,1.3851,1.3927,1.3927,1.4003,1.4026,1.4109,1.4161,1.4135,1.4269,1.4272,1.428,1.4232,1.4234,1.4234,1.422,1.417,0,0,0,0,0,1.3361,1.343,1.3535,1.3602,1.3638,1.3722,1.3767,1.3809,1.3889,1.3921,1.3992,1.4068,1.4143,1.4192,1.4267,1.4351,1.4375,1.4382,1.4383,1.4383,1.4388,1.4437,1.4441,1.4394,1.4394,1.4394,0,0,1.3357,1.3433,1.3472,1.3593,1.3655,1.3725,1.3748,1.3821,1.3874,1.3932,1.402,1.4074,1.4164,1.4251,1.4293,1.4297,1.4407,1.4386,1.4385,1.4392,1.444,1.4444,1.4448,1.4396,1.4396,1.4395,0,0,1.3385,1.345,1.3513,1.3575,1.367,1.3725,1.374,1.3844,1.3882,1.3972,1.4017,1.408,1.4209,1.4271,1.432,1.4372,1.4402,1.4394,1.4396,1.4442,1.4446,1.4449,1.4468,1.4473,1.44,1.4399,1.4399,0,1.3368,1.3475,1.3542,1.3613,1.3664,1.3721,1.3786,1.3843,1.3956,1.399,1.3993,1.4156,1.4221,1.4322,1.4335,1.4372,1.4392,1.4382,1.444,1.4444,1.4449,1.4467,1.4474,1.4398,1.4398,1.4398,1.4398,0,1.3449,1.3523,1.3563,1.3672,1.3728,1.3795,1.3872,1.3921,1.3958,1.4013,1.4104,1.4183,1.4275,1.4303,1.434,1.441,1.441,1.4425,1.4429,1.445,1.4469,1.4476,1.4395,1.4396,1.4397,1.4397,0,0,1.3447,1.3592,1.3605,1.3655,1.3763,1.3822,1.3891,1.3982,1.4022,1.4099,1.4159,1.4267,1.4282,1.4337,1.4381,1.4422,1.4458,1.4433,1.4436,1.4434,1.454,1.4527,1.4534,1.4479,1.448,1.4482,1.4532,0,1.3489,1.3617,1.3679,1.3779,1.3848,1.3903,1.3963,1.4036,1.409,1.4156,1.4215,1.429,1.4304,1.4338,1.438,1.4444,1.448,1.4442,1.4536,1.4538,1.4511,1.4544,1.4531,1.4574,1.454,1.4541,1.4542,0,1.3555,1.3632,1.3739,1.3839,1.387,1.3924,1.4012,1.4074,1.4158,1.4194,1.4255,1.4299,1.4374,1.4373,1.4478,1.4451,1.4493,1.453,1.4533,1.4544,1.4541,1.4555,1.459,1.4596,1.4554,1.4553,1.4552,0,1.3542,1.3672,1.3753,1.3794,1.3913,1.3949,1.4001,1.4084,1.4134,1.4211,1.4244,1.4328,1.4374,1.4439,1.4504,1.4497,1.4602,1.4606,1.4634,1.4632,1.4654,1.4651,1.4695,1.4681,1.4681,1.4681,1.4681,0,1.3582,1.3646,1.3749,1.3798,1.3871,1.3942,1.4012,1.4067,1.414,1.4202,1.4254,1.431,1.4393,1.446,1.4511,1.459,1.4611,1.4642,1.4655,1.4637,1.4633,1.4666,1.4664,1.4683,1.4682,1.4682,1.4681,0,1.358,1.3651,1.3743,1.3848,1.3876,1.3925,1.4015,1.4066,1.4122,1.4199,1.4221,1.4309,1.439,1.4462,1.4569,1.4604,1.4685,1.4701,1.4656,1.4663,1.4686,1.4683,1.4752,1.4765,1.4742,1.4742,1.4742,0,1.3601,1.3651,1.3762,1.3807,1.3857,1.3929,1.3981,1.4053,1.4104,1.4203,1.4242,1.4327,1.4399,1.4526,1.4599,1.4682,1.47,1.4719,1.4713,1.4693,1.47,1.4696,1.4701,1.4718,1.4718,1.4718,1.4718,0,1.363,1.3663,1.3736,1.3821,1.3881,1.3952,1.4024,1.4058,1.4143,1.4198,1.4282,1.4338,1.4448,1.4531,1.4622,1.4675,1.471,1.4719,1.473,1.4712,1.4684,1.47,1.4655,1.4717,1.4717,1.4717,1.4717,1.4717,1.364,1.3687,1.3773,1.3852,1.3914,1.398,1.4032,1.4095,1.4166,1.4262,1.43,1.4385,1.4468,1.4593,1.4646,1.4713,1.472,1.4735,1.4739,1.4742,1.4738,1.4674,1.473,1.473,1.473,1.4731,1.4731,0,1.3672,1.373,1.3802,1.3902,1.3964,1.3992,1.4074,1.4124,1.4198,1.4272,1.4342,1.4438,1.452,1.46,1.4686,1.4724,1.4743,1.4744,1.4742,1.4754,1.4728,1.471,1.4728,1.4728,1.4728,1.4728,1.4728,1.4728,1.3696,1.3777,1.382,1.3933,1.399,1.4075,1.4118,1.418,1.4239,1.4344,1.4413,1.4464,1.4541,1.4633,1.4709,1.473,1.4759,1.4756,1.4782,1.4756,1.4756,1.4755,1.4738,1.4762,1.4762,1.4802,1.4802,1.4802]},{"header":{"parameterUnit":"m.s-1","parameterCategory":1,"la1":30.2991,"la2":30.254,"lo1":-89.0895,"lo2":-89.0444,"dy":0.0017,"dx":0.0017,"nx":28,"ny":28,"refTime":"2024-06-08T09:00:00:Z","depth":0,"parameterNumber":3,"parameterNumberName":"V-component_of_WINDS"},"data":[0,0,0,0,0,0,0,0,0,0,0,0,0,0,0,0,0,0,0,0,0,0,0,0,0,0,0,0,0,0,0,0,0,0,0,0,0,0,0,0,0,0,0,0,0,0,0,0,0,0,0,0,0,0,0,0,0,0,3.8694,3.8694,0,3.8707,3.8707,3.8707,3.8677,3.8676,3.8675,3.8674,3.8685,3.8686,3.8688,0,0,0,0,0,0,0,0,0,0,0,0,0,3.864,3.8641,3.8694,3.8694,3.8694,3.8707,3.8707,3.8707,3.8677,3.8676,3.8675,3.8674,3.8685,3.8686,3.8688,0,0,0,0,0,0,0,0,0,0,0,0,0,3.8659,3.8642,3.8694,3.8681,3.868,3.8707,3.8707,3.8707,3.8677,3.8676,3.8674,3.8673,3.8684,3.8686,3.8688,3.8728,0,0,3.8693,3.8694,0,0,0,0,0,0,0,0,3.8658,3.8661,3.8682,3.8682,3.868,3.8689,3.8692,3.8714,3.8678,3.8678,3.8674,3.8672,3.8687,3.8689,3.8694,3.8728,3.8729,3.8693,3.8695,3.8695,3.8696,0,0,0,0,0,0,0,3.8657,3.8661,3.8699,3.8683,3.8682,3.8673,3.8674,3.8696,3.8691,3.8678,3.8676,3.8678,3.8687,3.8693,3.8694,3.8729,3.8693,3.8695,3.8696,3.8697,3.8796,3.8798,0,0,0,0,0,0,3.8658,3.866,3.8698,3.8699,3.8666,3.8675,3.8677,3.8688,3.869,3.8689,3.8679,3.8676,3.869,3.8692,3.8695,3.8742,3.8695,3.8697,3.8698,3.8795,3.8797,3.8798,0,0,0,0,0,0,3.8657,3.8662,3.8698,3.8679,3.8683,3.8678,3.869,3.8689,3.8695,3.8691,3.869,3.8687,3.8689,3.8692,3.872,3.8742,3.8698,3.8699,3.8793,3.8795,3.8798,3.8837,0,0,0,0,0,0,3.8655,3.8661,3.8677,3.868,3.8684,3.8724,3.8692,3.869,3.8698,3.8695,3.8698,3.8697,3.8688,3.8717,3.8722,3.8744,3.8701,3.8791,3.8794,3.8797,3.8834,3.884,3.8846,0,0,0,0,0,3.8654,3.8687,3.8678,3.8683,3.8704,3.8725,3.8728,3.8718,3.87,3.8715,3.8713,3.8697,3.8739,3.8721,3.8725,3.8748,3.879,3.8793,3.8797,3.8831,3.8839,3.8846,0,0,0,0,0,0,3.8686,3.8687,3.8677,3.8712,3.8719,3.872,3.8739,3.8727,3.8738,3.8734,3.8721,3.8722,3.8752,3.8752,3.8732,3.8787,3.8761,3.8766,3.8786,3.8793,3.8799,3.8799,3.8702,0,0,0,0,0,3.8698,3.8716,3.8715,3.8746,3.875,3.8744,3.8753,3.8745,3.8751,3.8753,3.8753,3.8759,3.8773,3.8783,3.8796,3.8833,3.8834,3.8851,3.8857,3.8863,3.8867,3.8887,3.8895,3.881,3.881,3.881,0,0,3.8721,3.8724,3.8736,3.8753,3.8757,3.8776,3.8747,3.8767,3.8781,3.8756,3.8783,3.8783,3.8788,3.8821,3.8836,3.8823,3.889,3.8867,3.8871,3.8873,3.8892,3.89,3.8907,3.8812,3.8812,3.8812,0,0,3.8774,3.8778,3.8804,3.8809,3.8816,3.8812,3.8819,3.8822,3.8821,3.8848,3.883,3.8845,3.887,3.8875,3.8881,3.8936,3.8921,3.894,3.8973,3.8993,3.9,3.9005,3.9026,3.9033,3.8944,3.8944,3.8945,0,3.8802,3.883,3.8819,3.8842,3.885,3.8829,3.8856,3.8861,3.8872,3.8877,3.8863,3.8894,3.8896,3.893,3.8944,3.8949,3.8956,3.894,3.9,3.9005,3.9011,3.903,3.9037,3.8947,3.8947,3.8946,3.8946,0,3.8865,3.8885,3.8905,3.8917,3.8927,3.8952,3.8944,3.8956,3.8947,3.8944,3.8971,3.8973,3.8987,3.8994,3.8985,3.9027,3.9018,3.9002,3.8976,3.9021,3.9039,3.9046,3.895,3.8949,3.8949,3.8948,0,0,3.8939,3.8945,3.8953,3.8958,3.8965,3.8979,3.9002,3.9016,3.9027,3.9034,3.9054,3.9076,3.906,3.9067,3.9058,3.9076,3.912,3.9057,3.9057,3.9069,3.9167,3.918,3.9189,3.911,3.9111,3.9112,3.9167,0,3.8992,3.9033,3.9024,3.9064,3.9083,3.9063,3.9083,3.9089,3.9087,3.9101,3.9098,3.9115,3.9093,3.9097,3.9113,3.9111,3.9139,3.9107,3.9128,3.9129,3.9128,3.9198,3.9212,3.9263,3.9173,3.9174,3.9175,0,3.9059,3.9071,3.9113,3.9117,3.9124,3.9143,3.9155,3.9169,3.9175,3.9172,3.918,3.9168,3.9191,3.9164,3.9195,3.9173,3.9181,3.9181,3.9183,3.9185,3.9155,3.9203,3.9279,3.9287,3.9186,3.9185,3.9184,0,3.911,3.9136,3.9165,3.917,3.9175,3.9189,3.9191,3.9196,3.9205,3.9215,3.9221,3.9233,3.924,3.925,3.9242,3.9223,3.9274,3.9246,3.9272,3.9273,3.9285,3.9284,3.9364,3.9288,3.9288,3.9288,3.9288,0,3.9171,3.9198,3.9188,3.9206,3.9236,3.9225,3.9254,3.9254,3.9258,3.9275,3.9258,3.9275,3.9262,3.9277,3.927,3.9297,3.93,3.9299,3.9297,3.9301,3.9301,3.9306,3.9303,3.929,3.929,3.9289,3.9289,0,3.9233,3.9228,3.9258,3.9261,3.9262,3.9284,3.9285,3.9302,3.9298,3.932,3.9325,3.9319,3.9336,3.9328,3.9346,3.9341,3.9376,3.9369,3.9375,3.9373,3.94,3.9398,3.9487,3.9499,3.9414,3.9415,3.9416,0,3.9272,3.9293,3.9298,3.9309,3.9313,3.933,3.934,3.9329,3.934,3.9348,3.9364,3.9379,3.9391,3.9419,3.9416,3.943,3.9423,3.9453,3.9425,3.9429,3.9425,3.9424,3.9426,3.9459,3.946,3.9461,3.9462,0,3.9343,3.934,3.9355,3.9369,3.9381,3.9392,3.94,3.941,3.94,3.9412,3.943,3.9439,3.9458,3.9473,3.9485,3.9487,3.9473,3.9471,3.9478,3.9483,3.9486,3.9485,3.9391,3.9469,3.9468,3.9468,3.9467,3.9467,3.9396,3.9414,3.942,3.9438,3.9443,3.9452,3.9468,3.9467,3.9482,3.9496,3.9489,3.951,3.9515,3.9529,3.9533,3.9548,3.9536,3.9546,3.9549,3.9552,3.9556,3.9482,3.955,3.955,3.955,3.955,3.955,0,3.9467,3.9471,3.9487,3.95,3.9514,3.95,3.9509,3.9521,3.9539,3.9546,3.9558,3.9579,3.9594,3.9592,3.9606,3.9619,3.9613,3.9623,3.9623,3.9624,3.9565,3.9558,3.9628,3.9628,3.9628,3.9628,3.9628,3.9628,3.9506,3.9535,3.9533,3.9565,3.9567,3.9588,3.9595,3.9603,3.9608,3.9632,3.9645,3.9644,3.9647,3.9661,3.9674,3.9673,3.968,3.9692,3.9689,3.9635,3.9627,3.962,3.9614,3.9694,3.9694,3.9746,3.9747,3.9747]}]]